Burlington, WA
on Tuesday, February 5, 2013

Tuesday
Previous Day Next Day
Daily Summary
 ActualAverage (KBLI)Record (KBLI)
Temperature
Mean Temperature °F 40°F  
Max Temperature 50°F 48°F 60°F (1963)
Min Temperature 44°F 33°F 10°F (1949)
Degree Days
Heating Degree Days 18 25  
Month to date heating degree days 125  
Cooling Degree Days 0 0  
Month to date cooling degree days 0  
Year to date cooling degree days 0  
Moisture
Dew Point 44°F   
Average Humidity 90    
Maximum Humidity 100    
Minimum Humidity 76    
Precipitation
Precipitation 0.00 in 0.11 in 1.07 in (1965)
Month to date precipitation 0.58  
Year to date precipitation 5.25  
Wind
Wind Speed 11 mph   
Max Wind Speed 17 mph   
Max Gust Speed 26 mph   
Visibility 10 miles   
Events     

Key: T is trace of precipitation, MM is missing value
Source: NWS Daily Summary
Time(PST)TemperatureDew PointHumidity Pressure Visibility Wind DirectionWind SpeedGust SpeedPrecipitationEvents Conditions
12:15 AM 44.6°F 44.6°F 100% 29.86 in 10.0 miles ESE 6.9 mph - 0.00 in   Overcast
12:35 AM 46.4°F 44.6°F 93% 29.85 in 10.0 miles ESE 9.2 mph - 0.00 in   Overcast
12:55 AM 46.4°F 44.6°F 93% 29.85 in 10.0 miles East 12.7 mph - 0.00 in   Overcast
1:15 AM 46.4°F 44.6°F 93% 29.85 in 10.0 miles SE 12.7 mph 20.7 mph 0.00 in   Overcast
1:35 AM 48.2°F 44.6°F 87% 29.84 in 10.0 miles SE 13.8 mph 20.7 mph 0.00 in   Overcast
1:55 AM 48.2°F 44.6°F 87% 29.84 in 10.0 miles SSE 13.8 mph 24.2 mph 0.00 in   Overcast
2:15 AM 48.2°F 44.6°F 87% 29.84 in 10.0 miles SSE 11.5 mph 17.3 mph 0.00 in   Overcast
2:35 AM 48.2°F 44.6°F 87% 29.84 in 10.0 miles SE 12.7 mph 17.3 mph 0.00 in   Overcast
2:55 AM 46.4°F 44.6°F 93% 29.83 in 10.0 miles SE 11.5 mph 21.9 mph 0.00 in   Overcast
3:15 AM 46.4°F 44.6°F 93% 29.85 in 10.0 miles South 8.1 mph 19.6 mph 0.00 in   Mostly Cloudy
3:35 AM 48.2°F 44.6°F 87% 29.85 in 10.0 miles SSE 9.2 mph 18.4 mph 0.00 in   Mostly Cloudy
3:55 AM 48.2°F 44.6°F 87% 29.85 in 10.0 miles SSE 8.1 mph - 0.00 in   Overcast
4:15 AM 46.4°F 44.6°F 93% 29.86 in 10.0 miles SSE 10.4 mph 17.3 mph 0.00 in   Overcast
4:35 AM 46.4°F 44.6°F 93% 29.85 in 10.0 miles SSE 9.2 mph - 0.00 in   Overcast
4:55 AM 46.4°F 44.6°F 93% 29.83 in 10.0 miles SSE 12.7 mph 19.6 mph 0.00 in   Overcast
5:15 AM 46.4°F 44.6°F 93% 29.83 in 10.0 miles SSE 13.8 mph 19.6 mph 0.00 in   Overcast
5:35 AM 46.4°F 44.6°F 93% 29.83 in 10.0 miles SSE 11.5 mph 18.4 mph 0.00 in   Mostly Cloudy
5:55 AM 46.4°F 44.6°F 93% 29.83 in 10.0 miles SSE 12.7 mph 19.6 mph 0.00 in   Mostly Cloudy
6:15 AM 46.4°F 44.6°F 93% 29.82 in 10.0 miles SSE 11.5 mph 19.6 mph 0.00 in   Mostly Cloudy
6:35 AM 46.4°F 44.6°F 93% 29.82 in 10.0 miles SSE 13.8 mph 21.9 mph 0.00 in   Overcast
6:55 AM 46.4°F 44.6°F 93% 29.82 in 10.0 miles SSE 12.7 mph 18.4 mph 0.00 in   Overcast
7:15 AM 46.4°F 44.6°F 93% 29.82 in 10.0 miles SSE 11.5 mph 17.3 mph 0.00 in   Overcast
7:35 AM 46.4°F 44.6°F 93% 29.83 in 10.0 miles SE 13.8 mph 19.6 mph 0.00 in   Overcast
7:55 AM 46.4°F 44.6°F 93% 29.83 in 10.0 miles SSE 10.4 mph - 0.00 in   Overcast
8:15 AM 46.4°F 44.6°F 93% 29.84 in 10.0 miles SSE 15.0 mph 23.0 mph 0.00 in   Overcast
8:35 AM 46.4°F 44.6°F 93% 29.85 in 10.0 miles SSE 10.4 mph 18.4 mph 0.00 in   Overcast
8:55 AM 46.4°F 44.6°F 93% 29.85 in 10.0 miles SE 9.2 mph 16.1 mph 0.00 in   Overcast
9:15 AM 46.4°F 44.6°F 93% 29.84 in 10.0 miles SE 12.7 mph 19.6 mph 0.00 in   Overcast
9:35 AM 46.4°F 44.6°F 93% 29.85 in 10.0 miles SSE 9.2 mph 17.3 mph 0.00 in   Overcast
9:55 AM 46.4°F 44.6°F 93% 29.85 in 10.0 miles SE 10.4 mph 17.3 mph 0.00 in   Overcast
10:15 AM 46.4°F 44.6°F 93% 29.85 in 10.0 miles SSE 10.4 mph 17.3 mph 0.00 in   Overcast
10:35 AM 46.4°F 44.6°F 93% 29.85 in 10.0 miles SSE 11.5 mph - 0.00 in   Overcast
10:55 AM 46.4°F 44.6°F 93% 29.85 in 10.0 miles SE 10.4 mph - 0.00 in   Overcast
11:15 AM 46.4°F 44.6°F 93% 29.85 in 10.0 miles SE 8.1 mph - 0.00 in   Overcast
11:35 AM 48.2°F 44.6°F 87% 29.84 in 10.0 miles SE 15.0 mph 18.4 mph 0.00 in   Overcast
11:55 AM 48.2°F 44.6°F 87% 29.84 in 10.0 miles SSE 9.2 mph 19.6 mph 0.00 in   Overcast
12:15 PM 48.2°F 44.6°F 87% 29.84 in 10.0 miles SSE 8.1 mph 16.1 mph 0.00 in   Overcast
12:35 PM 48.2°F 44.6°F 87% 29.83 in 10.0 miles South 9.2 mph 18.4 mph 0.00 in   Overcast
12:55 PM 48.2°F 44.6°F 87% 29.83 in 10.0 miles South 12.7 mph 21.9 mph 0.00 in   Overcast
1:15 PM 48.2°F 44.6°F 87% 29.82 in 10.0 miles South 11.5 mph 20.7 mph 0.00 in   Mostly Cloudy
1:35 PM 48.2°F 44.6°F 87% 29.81 in 10.0 miles SSE 13.8 mph 25.3 mph 0.00 in   Mostly Cloudy
1:55 PM 48.2°F 44.6°F 87% 29.80 in 10.0 miles SSE 10.4 mph 19.6 mph 0.00 in   Mostly Cloudy
2:15 PM 48.2°F 44.6°F 87% 29.80 in 10.0 miles South 15.0 mph 24.2 mph 0.00 in   Scattered Clouds
2:35 PM 48.2°F 44.6°F 87% 29.80 in 10.0 miles South 15.0 mph 24.2 mph 0.00 in   Scattered Clouds
2:55 PM 50.0°F 42.8°F 76% 29.80 in 10.0 miles South 16.1 mph 21.9 mph 0.00 in   Partly Cloudy
3:15 PM 48.2°F 42.8°F 82% 29.81 in 10.0 miles South 17.3 mph 25.3 mph 0.00 in   Scattered Clouds
3:35 PM 50.0°F 42.8°F 76% 29.80 in 10.0 miles SSE 12.7 mph 21.9 mph 0.00 in   Overcast
3:55 PM 50.0°F 42.8°F 76% 29.80 in 10.0 miles SSE 12.7 mph 24.2 mph 0.00 in   Overcast
4:15 PM 50.0°F 42.8°F 76% 29.80 in 10.0 miles South 12.7 mph 26.5 mph 0.00 in   Overcast
4:35 PM 50.0°F 42.8°F 76% 29.79 in 10.0 miles SSE 13.8 mph 21.9 mph 0.00 in   Overcast
4:55 PM 48.2°F 42.8°F 82% 29.80 in 10.0 miles SSE 13.8 mph 24.2 mph 0.00 in   Overcast
5:15 PM 48.2°F 42.8°F 82% 29.80 in 10.0 miles South 11.5 mph 19.6 mph 0.00 in   Overcast
5:35 PM 48.2°F 44.6°F 87% 29.80 in 10.0 miles South 16.1 mph 26.5 mph 0.00 in   Overcast
6:15 PM 48.2°F 42.8°F 82% 29.81 in 10.0 miles South 13.8 mph 19.6 mph 0.00 in   Overcast
6:35 PM 46.4°F 42.8°F 87% 29.81 in 10.0 miles South 12.7 mph 20.7 mph 0.00 in   Overcast
6:55 PM 46.4°F 44.6°F 93% 29.81 in 10.0 miles South 10.4 mph 20.7 mph 0.00 in   Overcast
7:15 PM 46.4°F 44.6°F 93% 29.82 in 10.0 miles South 11.5 mph 20.7 mph 0.00 in   Overcast
7:35 PM 46.4°F 44.6°F 93% 29.83 in 10.0 miles South 11.5 mph 18.4 mph 0.00 in   Overcast
7:55 PM 46.4°F 44.6°F 93% 29.84 in 10.0 miles South 9.2 mph 17.3 mph 0.00 in   Overcast
8:15 PM 46.4°F 44.6°F 93% 29.84 in 10.0 miles South 9.2 mph 16.1 mph 0.00 in   Overcast
8:35 PM 46.4°F 44.6°F 93% 29.85 in 10.0 miles South 6.9 mph - 0.00 in   Overcast
8:55 PM 46.4°F 44.6°F 93% 29.86 in 10.0 miles South 6.9 mph - 0.00 in   Overcast
9:15 PM 46.4°F 44.6°F 93% 29.86 in 10.0 miles South 6.9 mph - 0.00 in   Overcast
9:35 PM 46.4°F 44.6°F 93% 29.87 in 10.0 miles South 9.2 mph - 0.00 in   Overcast
9:55 PM 46.4°F 44.6°F 93% 29.88 in 10.0 miles South 8.1 mph - 0.00 in   Overcast
10:15 PM 46.4°F 44.6°F 93% 29.88 in 10.0 miles South 8.1 mph - 0.00 in   Overcast
10:35 PM 46.4°F 44.6°F 93% 29.89 in 10.0 miles South 9.2 mph 16.1 mph 0.00 in   Overcast
10:55 PM 46.4°F 44.6°F 93% 29.89 in 10.0 miles South 6.9 mph - 0.00 in   Mostly Cloudy
11:15 PM 46.4°F 44.6°F 93% 29.89 in 10.0 miles South 12.7 mph 17.3 mph 0.00 in   Overcast
11:55 PM 44.6°F 44.6°F 100% 29.91 in 10.0 miles South 10.4 mph - 0.00 in   Scattered Clouds
Moon Phase
Feb. 05 Feb. 10 Feb. 17 Feb. 25 Mar. 04
Sunrise:07:32 AM (PST) Moon Rise:03:29 AM (PST)2/5
Sunset:05:15 PM (PST) Moon Set:12:28 PM (PST)2/5

Copyright © 2014 The Weather Underground, Inc.